Location: Beverley
(50.2667°N, 107.9667°W)
Time: 16:55:20
(UTC+00:00)

XW-2A - Pass Details

Date: 27 June 2022
Orbit: 396 x 406 km, 97.2° (Epoch: 10 August)

Event Time Altitude Azimuth Distance (km) Brightness Sun altitude
Exits shadow 04:14:11 - 177° (S) 1,987 ? -6.3°
Reaches altitude 10° 04:15:27 10° 180° (S) 1,447 ? -6.4°
Maximum altitude 04:18:29 54° 259° (W) 492 ? -6.7°
Drops below altitude 10° 04:21:32 10° 339° (NNW) 1,456 ? -7.0°
Sets 04:23:33 0° 344° (NNW) 2,319 ? -7.2°
